Page, AZ

7:02 PM MDT on August 19, 2017 (GMT -0600)
Page Municipal

Weather History for KPGA - February, 2014

Change the Weather History Date:

Friday, February 14, 2014

  Actual Average Record
Temperature  
Mean Temperature 60 °F -  
Max Temperature 73 °F 50 °F 73 °F (2014)
Min Temperature 46 °F 32 °F 14 °F (1966)
Degree Days  
Heating Degree Days 6    
Growing Degree Days 10 (Base 50)    
Moisture  
Dew Point 19 °F    
Average Humidity 21    
Maximum Humidity 36    
Minimum Humidity 7    
Precipitation  
Precipitation 0.00 in - - ()
Sea Level Pressure  
Sea Level Pressure 29.98 in    
Wind  
Wind Speed 3 mph (WSW)    
Max Wind Speed 8 mph    
Max Gust Speed -    
Visibility 10 miles    
Events      
Averages and records for this station are not official NWS values.
T = Trace of Precipitation, MM = Missing Value Source: NWS Daily Summary

Daily Weather History Graph

Daily Weather History Graph

Search for Another Location

Airport or City:

Trip Planner

Search our weather history database for the weather conditions in past years. The results will help you decide how hot, cold, wet, or windy it might be!

Date:

Astronomy

Feb. 14, 2014 Rise Set
Actual Time 7:15 AM MST 6:05 PM MST
Civil Twilight 6:48 AM MST 6:31 PM MST
Nautical Twilight 6:18 AM MST 7:02 PM MST
Astronomical Twilight 5:48 AM MST 7:32 PM MST
Moon 6:10 PM MST (2/14) 6:45 AM MST (2/14)
Length of Visible Light 11h 42m
Length of Day
10h 49m
Full, 100% of the Moon is Illuminated
Feb 14
Full
Feb 14
Full
Feb 22
Last Quarter
Mar 1
New
Mar 8
First Quarter

Hourly Weather History & Observations

Time (MST) Temp. Dew Point Humidity Pressure Visibility Wind Dir Wind Speed Gust Speed Precip Events Conditions
12:53 AM 54.0 °F 18.0 °F 24% 29.96 in 10.0 mi WSW 3.5 mph - N/A   Clear
1:53 AM 54.0 °F 17.1 °F 23% 29.96 in 10.0 mi North 3.5 mph - N/A   Overcast
2:53 AM 52.0 °F 18.0 °F 26% 29.96 in 10.0 mi NW 3.5 mph - N/A   Partly Cloudy
3:53 AM 50.0 °F 19.0 °F 29% 29.96 in 10.0 mi South 5.8 mph - N/A   Overcast
4:53 AM 48.9 °F 19.0 °F 31% 29.95 in 10.0 mi Calm Calm - N/A   Clear
5:53 AM 48.9 °F 19.0 °F 31% 29.97 in 10.0 mi Calm Calm - N/A   Clear
6:53 AM 48.0 °F 19.0 °F 32% 29.99 in 10.0 mi SE 4.6 mph - N/A   Clear
7:53 AM 46.9 °F 21.0 °F 36% 30.02 in 10.0 mi Calm Calm - N/A   Clear
8:53 AM 53.1 °F 21.0 °F 29% 30.03 in 10.0 mi WSW 3.5 mph - N/A   Clear
9:53 AM 59.0 °F 21.9 °F 24% 30.03 in 10.0 mi Variable 4.6 mph - N/A   Clear
10:53 AM 61.0 °F 21.9 °F 22% 30.04 in 10.0 mi Calm Calm - N/A   Clear
11:53 AM 63.0 °F 21.9 °F 21% 30.01 in 10.0 mi Calm Calm - N/A   Clear
12:53 PM 66.0 °F 23.0 °F 20% 29.99 in 10.0 mi Variable 4.6 mph - N/A   Clear
1:53 PM 69.1 °F 24.1 °F 18% 29.95 in 10.0 mi NE 5.8 mph - N/A   Clear
2:53 PM 70.0 °F 21.9 °F 16% 29.94 in 10.0 mi Variable 4.6 mph - N/A   Clear
3:53 PM 72.0 °F 19.9 °F 14% 29.93 in 10.0 mi Variable 3.5 mph - N/A   Clear
4:53 PM 71.1 °F 21.0 °F 15% 29.93 in 10.0 mi West 4.6 mph - N/A   Clear
5:53 PM 69.1 °F 19.0 °F 15% 29.94 in 10.0 mi West 4.6 mph - N/A   Clear
6:53 PM 69.1 °F 17.1 °F 14% 29.95 in 10.0 mi West 6.9 mph - N/A   Clear
7:53 PM 66.9 °F 15.1 °F 14% 29.98 in 10.0 mi West 8.1 mph - N/A   Clear
8:53 PM 64.9 °F 17.1 °F 16% 29.97 in 10.0 mi West 6.9 mph - N/A   Clear
9:53 PM 61.0 °F 17.1 °F 18% 29.98 in 10.0 mi West 4.6 mph - N/A   Clear
10:53 PM 54.0 °F 15.1 °F 22% 29.99 in 10.0 mi SSE 5.8 mph - N/A   Clear
11:53 PM 55.9 °F 16.0 °F 21% 29.99 in 10.0 mi SSE 4.6 mph - N/A   Clear